Погода в Жёлтом Яре

Россия / Еврейская автономная область     48°34′12″N   133°03′25″E
темп.,
°C
ветер,
м/с
пор.,
м/с
влажн.,
%
обл.,
%
осадки,
мм/ч
давл.,
гПа
погр.,
м
28 февраля, вс
вс2801:00−12ссв1296100 0.2 101857
04:00−13ссз2295100 0.6 101586
07:00−12зюз2293100 0.1 101755
10:00−9з41184100 0.1 1018368
13:00−7з71063100 0.0 1020625
16:00−7зсз71156100 0.0 1020830
19:00−10з6126347 0.0 1023453
22:00−14з6127223 0.0 1025474
1 марта, пн
пн101:00−16зсз613660 0.0 1026553
04:00−18з613690 0.0 1029556
07:00−19з613630 0.0 1031429
10:00−18з511580 0.0 1032475
13:00−14з711510 0.0 10321342
16:00−13з7105414 0.0 10301588
19:00−16зсз386731 0.0 1030228
22:00−18зюз367916 0.0 1031156
2 марта, вт
вт201:00−20з23840 0.0 103161
04:00−22з12860 0.0 103034
07:00−23з22830 0.0 103030
10:00−19з22670 0.0 1030173
13:00−14з35560 0.0 1030694
16:00−12зсз46569 0.0 10281403
19:00−16зюз357889 0.0 1028139
22:00−18зюз238248 0.0 102935
3 марта, ср
ср301:00−19зюз12890 0.0 102920
04:00−20ююз11929 0.0 102821
07:00−20ю129184 0.0 102723
10:00−17ююв237691 0.0 1026244
13:00−13ююв366696 0.0 1023672
16:00−11юв367098 0.0 1020758
19:00−14в1295100 0.1 101737
22:00−13св2396100 0.8 101575
4 марта, чт
чт401:00−14с3595100 0.3 1012153
04:00−15с2396100 0.4 101284
07:00−17ссз119553 0.0 101220
10:00−12юз238527 0.0 1013171
13:00−7юз237830 0.0 1011349
16:00−5юз248355 0.0 1010420
19:00−9з1294100 0.0 101021
22:00−10з4119075 0.0 1012304